AirNav   Everest Fuels
 
 1067 users online  

PN28 Campbell's Heliport
Doylestown, Pennsylvania, USA

GOING TO DOYLESTOWN?


FAA INFORMATION EFFECTIVE 18 JUNE 2020

Location

FAA Identifier: PN28
Lat/Long: 40-17-11.3800N 075-08-42.6100W
40-17.189667N 075-08.710167W
40.2864944,-75.1451694
(estimated)
Elevation: 240 ft. / 73 m (estimated)
Variation: 12W (1995)
From city: 2 miles N of DOYLESTOWN, PA
Time zone: UTC -4 (UTC -5 during Standard Time)
Zip code: 18901

Heliport Operations

Heliport use: Private use. Permission required prior to landing
Activation date: 04/1999
Control tower: no
ARTCC: NEW YORK CENTER
FSS: WILLIAMSPORT FLIGHT SERVICE STATION
Attendance: UNATNDD
Wind indicator: yes
Segmented circle: no

Heliport Communications

WX ASOS at DYL (3 nm N): 118.875 (215-345-0392)
WX AWOS-3 at CKZ (9 nm NW): 126.325 (215-257-7291)
WX AWOS-3 at LOM (10 nm SW): 118.925 (215-646-1068)
WX ASOS at PNE (14 nm SE): 121.15 (215-677-0146)
WX AWOS-3 at UKT (14 nm NW): 119.475 (215-538-7610)
WX ASOS at TTN (15 nm E): 126.775 (609-538-8690)
WX AWOS-3 at N40 (18 nm NE): 121.725
WX ASOS at PTW (19 nm W): 119.425 (610-495-0823)

Nearby radio navigation aids

VOR radial/distance  VOR name  Freq  Var
ARDr290/11.1YARDLEY VOR/DME108.2010W
PTWr088/19.4POTTSTOWN VORTAC116.5009W
SBJr236/25.6SOLBERG VOR/DME112.9010W
FJCr162/30.0ALLENTOWN VORTAC117.5010W
GXUr315/30.2MC GUIRE VORTAC110.6012W
RBVr290/30.2ROBBINSVILLE VORTAC113.8010W
ETXr135/30.3EAST TEXAS VOR/DME110.2009W
MXEr056/32.7MODENA VORTAC113.2009W
BWZr217/34.1BROADWAY VOR/DME114.2011W
OODr021/39.7WOODSTOWN VORTAC112.8010W

 
NDB name  Hdg/Dist  Freq  Var  ID
AMBLER046/11.627512WING .. -. --.
LAKEHURST302/39.939611WNEL -. . .-..

Heliport Services

Runway Information

Helipad H1

Dimensions: 75 x 75 ft. / 23 x 23 m
Surface: turf, in good condition
Traffic pattern: leftleft

Heliport Ownership and Management from official FAA records

Ownership: Privately-owned
Owner: ROBT CAMPBELL
236 WELLS RD
DOYLESTOWN, PA 18901
Phone 215-348-8661
Manager: ROBT CAMPBELL
236 WELLS RD
DOYLESTOWN, PA 18901
Phone 267-718-0342

Heliport Operational Statistics

Aircraft based on the field: 1
Helicopters: 1
    

Additional Remarks

ALL FLT OPNS CONDUCTED OVR THE PARK. AVOID RES AREAS FOR NOISE ABATEMENT.
FOR CD CTC PHILADELPHIA APCH AT 800-354-9884.

Instrument Procedures

There are no published instrument procedures at PN28.

Some nearby airports with instrument procedures:

KDYL - Doylestown Airport (3 nm N)
KCKZ - Pennridge Airport (9 nm NW)
KLOM - Wings Field Airport (10 nm SW)
KPNE - Northeast Philadelphia Airport (14 nm SE)
N10 - Perkiomen Valley Airport (14 nm W)
KUKT - Quakertown Airport (14 nm NW)
KTTN - Trenton Mercer Airport (15 nm E)
N40 - Sky Manor Airport (18 nm NE)
N85 - Alexandria Airport (19 nm N)
KPTW - Heritage Field Airport (19 nm W)
 
Loc | Ops | Rwys | IFR | FBO | Links
Com | Nav | Svcs | Stats | Notes
Area around PN28 (Campbell's Heliport)
 
Road maps at: MapQuest Bing Google
 
Aerial photo
WARNING: Photo may not be current or correct
Aerial photo of PN28 (Campbell's Heliport)
Do you have a better or more recent aerial photo of Campbell's Heliport that you would like to share? If so, please send us your photo.

 
Sectional chart

 
Airport distance calculator
Flying to Campbell's Heliport? Find the distance to fly.

From to PN28

Sunrise and sunset
Times for 02-Jul-2020
 Local
(UTC-4)
 Zulu
(UTC)
Morning civil twilight05:0409:04
Sunrise05:3609:36
Sunset20:3300:33
Evening civil twilight21:0601:06

Current date and time
Zulu (UTC)  02-Jul-2020 23:13:28
Local (UTC-4)  02-Jul-2020 19:13:28
 
METAR
KDYL 
3nm NE 
022254Z AUTO 35005KT 10SM FEW080 SCT110 33/16 A2980 RMK AO2 SLP085 T03330161
KCKZ 
9nm NW 
022255Z AUTO 34004KT 10SM CLR 31/15 A2984 RMK AO2
KLOM 
10nm SW 
022255Z AUTO 31004KT 10SM SCT075 SCT120 31/17 A2981 RMK AO2 T03130166
KPNE 
14nm SE 
022254Z AUTO 34008KT 10SM BKN120 34/16 A2980 RMK AO2 SLP089 T03390156
KUKT 
14nm NW 
022255Z AUTO VRB04KT 10SM FEW120 31/17 A2983 RMK A01
KTTN 
15nm E 
ASOS 133.70 609-538-8690
022253Z 34005KT 10SM CLR 31/17 A2979 RMK AO2 SLP079 T03110167
KPTW 
19nm W 
022254Z AUTO 32008KT 8SM CLR 31/17 A2984 RMK AO2 SLP098 T03060167
TAF
KPNE 
14nm SE 
022042Z 0221/0318 34012KT P6SM VCSH FEW060 FM030000 30005KT P6SM SCT200 FM031500 32006KT P6SM BKN100
KTTN 
15nm E 
021720Z 0218/0318 32007KT P6SM SCT060 FM022100 32007KT P6SM VCSH SCT060 FM030000 30006KT P6SM SCT200 FM031400 32005KT P6SM BKN150
NOTAMs
Click for the latest NOTAMs
NOTAMs are issued by the DoD/FAA and will open in a separate window not controlled by AirNav.

 

 
 

Would you like to see your business listed on this page?

 If your business provides an interesting product or service to pilots, flight crews, aircraft, or users of the Campbell's Heliport, you should consider listing it here.  To start the listing process, click on the button below
 
Add a business
 

Other Pages about Campbell's Heliport

Update a link
 
Copyright © AirNav, LLC. All rights reserved. Privacy Policy  Contact